ORBCOMM FM108 [+] (41187 NORAD) Tracking and Keplerian Element Data

This shows tracking and keplerian element data for the satellite.

Feedback or suggestion? Click here.




ElementValue
Catalog41187
NameORBCOMM FM108 [+]
Epoch Orbit13887
Epoch Day198.86141438
Epoch Year2018
RAAN106.7404
Inclination47.0053
Eccentricity0.0002841
Argument of Perigee293.6262
Mean Anonmoly66.4324
Mean Motion14.54720518
Decay Rate-4.7E-07
L11 41187U 15081J 18198.86141438 -.00000047 00000-0 27458-4 0 9990
L22 41187 47.0053 106.7404 0002841 293.6262 66.4324 14.54720518138878

Live tracking and technical data element details for ORBCOMM FM108 [+] (NORAD 41187). ORBCOMM FM108 [+] can be tracked NOW for your location showing map with azimuth and elevation plus other details from your city location.

Track the satellite on the map from your city or location and see movement details for azimuth, elevation, latitude, longitude, range, height, and movement on the map or in text.







IsCatalogInMostPopularTable: catalog: 41187, numindb: 69
Update: records affected: 1



GetName: 41187 ORBCOMM FM108 [+]

Hit Count: updated at: Thu, 19 Jul 2018 21:17:11 GMT